Location: Newark
(41.7475°N, 12.6504°E)
Time: 19:31:34
(UTC+00:00)

Hubble Space Telescope - Visible Passes

Search period start: 12 December 2019 00:00
Search period end: 22 December 2019 00:00
Orbit: 536 x 540 km, 28.5° (Epoch: 11 December)

Date Brightness Start Highest point End Pass type
(mag) Time Alt. Az. Time Alt. Az. Time Alt. Az.
15 Dec 3.7 05:08:22 10° S 05:09:03 10° S 05:09:44 10° SSE visible
16 Dec 3.5 04:56:58 10° S 04:58:18 11° S 04:59:39 10° SSE visible
17 Dec 3.4 04:45:54 10° SSW 04:47:34 12° S 04:49:13 10° SSE visible
18 Dec 3.3 04:35:00 10° SSW 04:36:50 13° S 04:38:38 10° SSE visible
19 Dec 3.2 04:25:04 12° SSW 04:26:05 13° S 04:27:58 10° SSE visible
20 Dec 3.2 04:15:09 13° S 04:15:21 13° S 04:17:13 10° SSE visible
21 Dec 3.4 04:05:12 12° S 04:05:12 12° S 04:06:23 10° SSE visible
